C/2019 K8 ( ATLAS )

Japanese version
Home page
Updated on July 4, 2019

---------------------------------------------------------------------

* Profile

Discovery Date May 27, 2019
Magnitude 17.9 mag
Discoverer Asteroid Terrestrial-Impact Last Alert System (ATLAS) search program

* Orbital Elements

Epoch 2019 July 16.0 TT = JDT 2458680.5                                         
T 2019 July 21.18358 TT                                 MPCLINUX                
q   3.1950300            (2000.0)            P               Q                  
z  +0.0007215      Peri.   85.34351     -0.02312574     -0.36216096             
 +/-0.0001082      Node   291.04421     -0.48380657     +0.81971872             
e   0.9976947      Incl.   93.22163     +0.87486937     +0.44373489             
From 397 observations 2019 May 27-June 30, mean residual 0".5.                  

* Magnitudes Graph

        m1 = 10.5 + 5 log d + 10.0 log r

---------------------------------------------------------------------

The orbital elements are published on M.P.E.C. 2019-N13.
The magnitudes graphs are made with Comet for Windows.

---------------------------------------------------------------------

Copyright(C) Seiichi Yoshida (comet@aerith.net). All rights reserved.